Location: Chevoux
(46.3801°N, 4.9476°E)
Time: 03:30:27
(UTC+00:00)

Envisat - Pass Details

Date: 07 December 2021
Orbit: 764 x 766 km, 98.2° (Epoch: 16 January)

Event Time Altitude Azimuth Distance (km) Brightness Sun altitude
Rises 03:40:22 0° 25° (NNE) 3,243 6.6 -35.1°
Reaches altitude 10° 03:43:09 10° 40° (NE) 2,311 5.9 -34.7°
Maximum altitude 03:47:09 23° 92° (E) 1,593 5.2 -34.0°
Drops below altitude 10° 03:51:07 10° 144° (SE) 2,296 5.8 -33.3°
Sets 03:53:52 0° 159° (SSE) 3,217 6.5 -32.8°
